Vorticity
nan nan nan nan nan nan nan nan nan nan nan nan nan nan nan nan nan nan nan nan nan nan nan nan nan nan nan nan nan nan nan nan nan nan nan nan nan nan nan nan nan nan nan nan
nan 9 11 8 9 10 7 6 8 8 12 8 8 9 15 7 7 8 8 7 5 6 5 6 7 7 7 7 8 7 8 9 11 9 9 8 8 9 9 8 8 10 9 nan
nan 14 7 9 10 8 6 11 10 7 7 10 14 18 10 8 8 7 6 5 5 5 6 6 6 7 7 7 8 8 7 8 8 10 11 9 10 9 8 8 9 8 10 nan
nan 8 9 6 6 8 8 10 11 9 7 11 8 21 18 11 5 6 6 4 4 6 6 5 6 6 8 8 8 8 8 9 8 9 9 10 11 9 10 9 8 8 10 nan
nan 9 6 6 10 9 9 6 9 10 8 10 11 7 10 12 12 13 8 5 5 5 6 6 7 7 8 8 9 8 8 8 8 9 11 11 10 12 9 7 8 11 12 nan
nan 8 9 10 10 6 6 14 11 9 12 7 13 9 4 12 14 16 11 6 5 6 7 7 7 7 7 8 8 8 8 8 8 9 9 9 10 12 11 10 13 10 11 nan
nan 9 10 11 12 4 6 13 13 13 9 5 3 10 13 10 14 16 11 6 5 6 6 6 6 7 7 7 9 8 8 8 8 9 9 10 11 12 12 13 11 10 13 nan
nan 13 8 4 5 9 13 10 13 7 2 3 8 14 13 11 11 11 8 7 6 5 6 7 7 7 7 7 8 8 9 9 9 8 9 10 13 14 10 11 12 12 10 nan
nan 7 8 6 6 10 8 6 7 13 11 11 11 10 5 6 6 6 6 5 4 6 6 5 7 9 8 8 7 8 9 9 8 10 10 9 9 11 11 10 14 11 9 nan
nan 10 9 8 10 6 -2 8 13 9 7 10 7 13 15 9 10 8 6 7 8 7 5 5 7 8 10 10 7 7 9 9 8 10 10 8 8 10 11 11 9 12 13 nan
nan 10 6 5 6 6 7 7 7 7 9 9 11 11 16 12 15 13 10 10 9 7 6 6 7 7 9 10 9 6 7 8 8 9 9 10 9 9 11 10 8 10 13 nan
nan 10 7 6 8 14 13 15 12 9 11 8 7 7 10 11 10 12 12 9 9 8 7 7 7 8 7 7 9 9 9 9 8 7 9 9 9 9 9 7 8 11 12 nan
nan 6 10 14 10 8 6 4 6 6 11 6 3 6 2 1 2 9 11 9 8 8 7 7 7 8 8 8 9 11 8 9 11 9 8 7 8 10 9 9 9 10 11 nan
nan 8 6 1 2 7 6 2 3 5 3 9 3 -1 -1 1 7 9 12 12 8 7 7 7 7 7 7 9 9 9 10 11 10 11 10 8 8 8 9 10 10 10 10 nan
nan 11 13 9 5 6 7 9 7 7 6 1 1 7 5 11 17 22 26 16 8 7 7 7 7 7 8 9 9 9 9 9 9 10 11 13 11 8 9 9 10 10 11 nan
nan 8 11 12 13 11 10 12 13 10 10 11 10 12 16 16 18 25 24 12 8 8 8 8 8 7 7 8 9 9 8 9 9 9 9 10 10 11 12 10 10 10 10 nan
nan 7 6 8 11 11 25 21 12 11 10 11 11 9 12 20 18 19 14 10 9 9 9 8 7 7 7 7 9 9 9 9 10 8 9 10 10 10 9 10 10 10 10 nan
nan 6 6 9 11 10 7 12 13 10 9 14 18 14 11 18 21 19 14 13 11 10 9 7 7 7 7 8 9 9 9 9 8 8 8 9 9 9 9 10 9 10 8 nan
nan 3 8 11 9 6 9 13 12 14 8 17 19 21 23 16 8 13 13 13 13 11 9 9 10 8 7 7 8 8 9 9 8 8 7 7 9 8 9 9 10 10 9 nan
nan 9 6 5 6 11 14 16 13 11 15 11 13 17 16 7 6 17 17 12 11 10 10 11 9 9 9 8 7 8 8 8 8 9 9 9 8 8 8 9 9 9 10 nan
nan 15 12 6 6 7 10 15 13 10 14 6 8 13 14 6 16 21 15 10 10 10 10 9 9 8 9 10 8 8 9 8 8 9 10 9 10 10 8 8 9 10 9 nan
nan 7 12 11 11 15 14 6 1 10 6 2 10 15 12 14 16 13 11 9 9 9 8 8 9 9 9 9 9 8 8 8 10 10 9 9 11 10 8 9 9 8 9 nan
nan 6 7 11 7 10 3 1 10 6 -1 7 17 13 14 14 12 11 11 9 8 8 8 9 10 9 9 9 10 9 8 9 9 8 9 10 10 9 11 9 10 10 9 nan
nan 11 7 7 7 -1 5 12 8 8 11 18 17 14 17 14 11 9 8 8 8 9 9 9 10 9 9 9 10 9 9 9 9 8 9 9 9 9 10 12 10 9 11 nan
nan 9 9 8 7 11 15 17 15 14 14 14 15 19 15 13 12 9 8 8 8 9 10 9 9 10 9 8 9 10 10 9 8 8 9 9 8 10 10 8 9 13 9 nan
nan nan nan nan nan nan nan nan nan nan nan nan nan nan nan nan nan nan nan nan nan nan nan nan nan nan nan nan nan nan nan nan nan nan nan nan nan nan nan nan nan nan nan nan
CAPE
0 0 0 0 0 0 0 0 0 0 0 0 0 0 0 0 0 0 0 0 0 0 0 0 0 0 0 0 0 0 0 0 0 0 0 0 0 0 1 3 9 12 12 14
0 0 0 0 0 0 0 0 0 0 0 0 0 0 0 0 0 0 0 0 0 0 0 0 0 0 0 0 0 0 0 0 0 0 0 2 4 4 6 7 10 10 11 20
0 0 0 0 0 0 0 0 0 0 0 0 0 0 0 0 0 0 0 0 0 0 0 0 0 0 0 0 0 0 0 0 0 5 0 2 3 5 5 5 6 8 9 6
0 0 0 0 0 0 0 0 0 0 0 0 0 0 0 0 0 0 0 0 0 0 0 0 0 0 0 0 0 0 0 0 1 6 4 9 8 11 9 18 12 13 12 13
0 0 0 0 0 0 0 0 0 0 0 0 0 0 0 0 0 0 0 0 0 0 0 0 0 0 0 0 0 0 0 0 4 7 8 9 9 11 12 21 18 15 13 14
0 0 0 0 0 0 0 0 0 0 0 0 0 0 0 0 0 0 0 0 0 0 0 0 0 0 0 0 0 0 0 0 3 5 7 13 10 16 22 22 24 15 15 12
0 0 0 0 0 0 0 0 0 0 17 2 0 0 0 0 0 0 0 0 0 0 0 0 0 0 0 0 0 0 0 0 2 7 8 11 12 13 19 29 29 26 20 18
0 0 0 0 0 0 0 0 0 0 4 4 0 0 15 0 0 0 0 0 0 0 0 0 1 0 0 0 0 1 0 0 2 4 11 8 10 20 20 25 37 26 23 22
0 0 0 0 0 0 0 0 3 4 3 5 1 4 4 0 0 0 0 0 0 0 0 0 1 0 0 2 16 1 0 0 2 4 10 9 11 14 21 21 20 40 30 25
0 0 0 0 0 0 0 0 0 29 16 6 0 26 61 2 0 0 4 2 0 0 0 0 4 0 0 16 16 1 0 0 0 1 7 11 11 14 13 15 17 26 22 23
0 4 0 0 0 0 0 0 3 17 25 51 40 18 52 25 2 1 1 5 2 1 2 0 3 1 0 3 13 17 3 1 4 3 4 12 11 13 18 9 22 26 23 23
0 0 0 0 0 0 0 0 15 40 29 76 59 41 0 0 0 0 12 6 7 0 3 1 1 0 2 0 3 15 7 10 11 5 7 7 12 11 18 16 19 20 22 23
0 0 0 0 5 9 23 21 17 27 44 17 79 155 0 0 0 0 3 9 4 3 2 3 2 0 1 2 4 15 14 1 2 14 14 4 6 9 24 30 24 21 19 16
0 0 0 0 0 0 7 14 10 23 102 39 40 27 2 1 5 12 0 4 3 4 2 4 1 1 2 2 5 0 0 0 1 2 3 5 11 14 25 33 29 24 20 20
0 0 0 0 1 7 12 11 1 3 2 43 0 12 0 0 4 3 14 3 1 2 0 0 1 2 0 0 0 0 0 0 0 0 0 5 9 7 8 17 24 21 22 23
3 4 4 1 1 9 8 19 1 0 0 2 0 0 0 4 0 0 0 0 0 0 0 0 0 0 0 0 0 0 0 0 0 0 0 0 0 0 1 6 14 6 20 19
8 4 8 0 0 6 6 2 0 0 0 2 15 33 80 32 3 0 0 0 0 0 0 0 0 0 0 0 0 0 0 0 0 0 0 0 0 0 0 0 2 2 0 15
0 2 9 7 11 8 0 0 0 0 0 40 43 33 68 22 0 0 0 0 0 0 0 0 2 0 0 0 0 0 0 0 0 1 0 0 0 0 0 0 0 5 3 1
1 9 27 32 23 9 2 0 0 15 32 98 53 87 0 0 0 0 0 0 0 0 0 0 0 0 0 0 0 0 0 0 0 4 6 3 2 0 2 3 2 6 10 9
5 34 67 47 44 19 0 0 4 18 27 0 1 9 0 0 39 14 0 0 0 0 0 0 0 0 0 0 0 0 0 1 2 2 5 8 6 8 8 11 7 9 10 19
15 53 58 72 55 25 3 0 0 38 53 0 0 0 0 0 0 0 0 0 0 0 0 0 0 0 0 0 0 0 0 1 0 0 0 1 5 7 11 11 12 12 13 13
16 28 44 40 34 25 7 4 23 44 5 0 0 0 0 0 0 0 1 1 0 0 0 0 0 0 0 0 0 0 0 0 0 0 0 0 0 1 3 8 8 6 8 9
19 4 38 34 40 63 46 34 32 22 5 4 3 0 0 0 2 5 4 0 0 0 0 0 0 0 0 0 0 0 0 0 0 0 0 0 0 0 0 0 1 4 5 6
45 22 28 19 30 6 24 27 0 0 0 0 0 0 0 0 1 1 0 0 0 0 0 0 0 0 0 0 0 0 0 0 0 0 0 0 0 0 0 0 0 0 3 3
41 28 5 33 8 41 17 9 6 0 0 0 0 0 0 0 0 0 0 0 0 0 0 0 0 0 0 0 0 0 0 0 0 0 0 0 0 0 0 0 0 0 6 3
28 7 95 75 61 58 45 4 0 0 0 0 0 0 0 0 0 0 0 0 0 0 0 0 0 0 0 0 0 0 0 0 0 0 0 0 0 0 0 0 0 0 0 0